SCP
3 4 5 7 8 10 10 10 9 9 8 7 6 5 4 3 3 3 4 5 6 6 6 3 1 2 2 2 2 2 2 2 2 2 2 2 2 2 2 2 2 2 2
2 3 4 5 7 9 11 12 10 8 8 7 6 5 4 3 3 4 5 6 6 7 6 4 2 2 2 2 2 2 2 2 2 2 2 2 1 2 2 2 2 2 2
2 2 3 4 5 7 11 13 10 8 8 7 6 4 4 3 3 4 5 6 6 7 8 6 4 2 2 2 2 2 2 2 2 2 2 2 2 1 1 2 2 2 2
3 3 3 4 4 6 9 11 9 7 7 6 5 3 3 3 3 4 5 6 6 7 8 8 6 4 3 2 2 2 2 2 2 2 3 2 2 2 1 1 1 1 2
3 3 3 4 4 5 8 9 8 6 6 5 4 3 3 3 3 4 4 5 6 6 8 8 7 5 3 2 2 2 2 2 2 2 2 2 2 2 1 1 1 1 1
3 3 4 4 5 5 7 8 7 5 5 5 5 5 4 3 3 4 4 5 5 5 6 8 7 5 4 3 2 2 2 2 2 2 2 2 2 2 1 1 1 1 1
4 4 4 4 4 4 5 7 7 6 5 5 6 6 6 5 4 5 5 5 4 5 6 7 7 6 4 3 2 2 2 2 2 2 2 2 2 1 1 1 1 1 1
4 4 4 4 4 4 5 6 7 7 6 5 6 7 7 6 6 7 7 6 5 5 6 7 7 6 5 4 3 2 2 2 2 2 2 2 2 1 1 1 1 1 1
3 4 4 4 4 4 5 5 6 7 6 6 6 6 6 7 7 8 8 7 6 5 6 6 6 6 5 4 3 2 2 2 2 2 2 2 2 1 1 1 1 1 1
2 3 3 4 4 5 5 6 6 6 6 6 6 6 6 7 8 8 8 7 6 6 6 5 5 5 4 3 3 3 2 2 2 2 2 2 2 2 2 2 2 2 2
2 2 3 4 5 6 6 6 7 6 6 7 8 8 8 8 7 7 7 7 7 6 6 6 5 4 3 3 3 3 3 2 2 2 2 2 2 2 2 2 2 2 2
3 3 4 5 6 7 6 7 8 7 6 6 7 8 9 9 8 6 6 7 7 7 7 7 5 4 3 3 3 3 3 2 2 2 2 2 2 3 3 3 2 2 2
6 6 7 8 9 9 8 9 10 8 6 5 5 6 7 8 7 6 6 7 8 7 7 7 5 3 2 2 2 3 3 3 3 3 3 2 2 2 2 3 3 3 2
9 10 10 10 11 11 11 11 11 9 6 6 5 5 6 6 6 6 6 6 6 6 5 5 3 2 2 2 2 2 3 3 3 3 2 2 2 2 2 2 2 3 3
10 10 10 11 12 12 11 11 11 10 9 8 7 7 7 6 6 6 6 5 5 5 4 3 3 2 2 2 2 2 3 3 3 3 3 2 2 2 2 2 2 2 2
10 10 11 13 13 11 10 12 13 13 13 12 11 9 8 7 7 7 6 5 5 5 4 4 3 3 2 2 2 3 3 4 4 4 3 2 2 2 2 1 1 1 1
11 13 15 18 17 13 11 12 15 15 16 16 14 12 10 9 8 7 6 6 5 5 5 5 4 3 3 2 2 3 4 5 4 3 3 3 2 2 2 1 1 1 1
12 14 17 17 16 13 11 11 12 13 15 15 14 13 11 9 8 7 7 7 6 6 6 6 5 3 2 2 2 3 5 5 4 3 3 3 3 3 2 2 2 2 1
9 11 12 11 10 9 8 8 8 9 10 10 10 11 10 10 9 8 8 8 8 7 7 6 5 3 3 3 3 3 5 5 4 3 3 3 3 3 3 2 2 2 2
8 9 9 9 8 8 8 8 9 9 9 9 10 10 10 9 9 9 8 9 9 8 6 5 4 3 4 4 3 3 4 5 4 3 3 3 3 3 3 2 3 3 3
10 11 11 11 10 10 10 10 11 11 11 12 13 12 10 9 9 9 8 8 8 7 5 4 4 4 4 5 4 3 4 5 4 4 4 3 3 2 2 2 3 3 3
11 12 13 12 12 11 10 10 11 11 11 11 12 11 10 8 8 8 7 7 7 5 4 4 5 5 5 5 5 3 3 4 5 5 4 4 2 1 1 1 2 2 2
10 11 11 11 11 10 10 10 10 10 9 9 8 8 7 7 7 7 6 5 5 5 4 5 5 5 5 5 5 3 2 2 4 4 4 3 2 1 0 1 1 1 1
9 9 10 9 9 9 9 9 9 8 8 7 6 6 6 6 6 5 4 4 4 4 4 4 5 5 4 3 3 3 2 1 2 3 3 3 2 1 1 1 1 1 1
8 9 9 8 8 8 8 8 8 7 6 6 5 5 5 5 5 4 3 3 3 3 2 3 3 3 3 2 1 1 1 1 1 2 3 4 3 2 2 2 3 2 2
8 8 8 8 7 7 7 8 7 7 6 5 5 4 4 4 4 4 3 3 2 2 1 1 2 2 2 1 0 0 0 0 1 2 4 4 4 3 3 3 3 3 3
Wind_Speed
12 11 10 10 10 9 8 6 6 6 4 3 3 3 3 3 3 3 4 4 3 3 1 1 1 1 0 1 1 1 2 2 2 2 2 2 3 4 3 3 2 3 4
12 11 10 10 10 9 8 8 7 6 5 4 3 2 2 2 2 2 3 4 3 3 3 3 2 1 1 1 1 1 2 2 1 1 1 1 2 2 4 3 3 3 2
14 13 12 10 11 10 9 9 7 6 6 5 4 3 2 2 2 3 3 3 3 3 2 2 2 2 2 2 2 2 2 2 2 1 1 0 1 2 1 2 2 3 2
14 14 13 11 11 10 10 8 8 7 6 6 5 5 5 4 4 3 3 3 4 3 3 3 2 2 1 2 3 2 2 2 3 2 1 2 1 1 1 1 1 3 3
14 14 13 12 11 11 11 9 8 7 7 6 6 6 5 4 3 3 4 4 3 4 4 3 3 2 2 2 2 1 2 2 2 2 1 1 1 2 1 1 1 1 1
13 13 13 11 10 10 10 10 9 7 7 7 6 6 5 4 3 3 4 4 3 3 4 4 3 3 3 2 2 2 2 1 2 2 2 1 1 1 1 2 1 1 1
12 12 12 12 10 10 9 9 9 8 8 7 6 6 6 5 5 4 4 4 3 3 4 4 4 3 3 3 2 2 2 2 2 2 2 2 2 2 1 1 1 1 1
11 12 12 12 11 11 9 9 9 9 8 7 6 5 5 5 4 5 4 4 3 3 4 4 4 3 3 3 2 2 2 2 2 3 2 2 2 2 1 1 1 1 1
11 11 12 12 11 11 10 10 9 8 8 7 6 5 5 5 4 4 4 3 2 3 4 4 4 3 3 2 2 1 1 1 1 2 2 2 2 2 1 1 1 1 1
9 10 10 10 10 9 8 9 9 8 8 7 6 6 6 5 4 3 3 3 2 1 3 3 3 3 3 2 2 1 1 1 1 1 1 2 2 2 1 1 1 1 1
8 8 7 8 8 8 8 7 7 8 8 7 6 5 5 5 5 4 3 3 2 2 2 3 3 3 2 2 2 2 1 1 0 1 0 1 1 2 2 1 1 1 0
5 7 7 7 6 7 7 7 6 6 6 6 6 5 4 5 5 5 4 3 3 3 2 2 2 2 2 2 2 2 1 0 0 1 1 1 1 2 2 2 2 1 0
5 6 7 7 6 6 5 6 5 5 5 5 5 4 4 4 4 4 3 3 3 3 2 2 2 2 1 1 1 1 0 1 1 1 1 1 2 2 2 2 2 1 1
6 7 7 6 6 5 4 5 5 5 5 4 5 4 3 3 3 3 3 3 3 3 3 2 2 2 1 1 1 1 1 1 2 2 2 3 3 3 2 2 2 2 1
7 7 7 6 5 5 4 4 4 4 4 4 4 4 3 3 3 3 3 2 2 3 3 2 2 1 1 1 0 1 2 2 2 2 3 4 5 6 4 3 3 2 2
6 7 7 6 5 5 4 4 4 4 4 3 3 3 3 3 3 3 3 2 2 2 2 2 1 2 1 2 2 2 1 3 2 2 2 3 4 5 7 7 7 5 3
6 6 5 5 5 5 4 4 4 4 3 3 3 3 3 3 3 3 3 3 3 3 2 2 2 3 4 6 5 3 2 3 2 2 1 1 3 3 3 3 5 5 6
7 7 5 5 5 5 4 4 4 4 3 3 2 2 3 3 3 3 3 3 3 3 3 3 3 4 5 6 6 4 2 3 3 3 3 4 4 5 4 2 3 3 4
7 6 5 5 5 5 4 4 4 4 4 3 3 3 3 3 3 3 3 3 3 3 3 3 4 5 5 7 6 4 2 4 4 4 5 5 4 6 5 3 3 3 2
6 5 6 6 6 5 5 5 4 4 3 2 3 3 3 2 3 3 3 3 3 3 4 5 5 5 5 6 6 4 2 4 4 4 5 8 6 6 6 3 3 3 2
7 6 6 6 5 5 5 5 4 4 3 3 4 4 4 2 3 4 3 3 4 4 4 5 5 5 5 6 7 5 2 3 3 3 3 4 6 6 5 4 3 2 2
8 8 6 6 5 5 5 5 4 4 4 4 5 5 4 3 4 4 4 3 4 4 4 4 4 4 4 5 6 7 6 4 4 3 3 3 5 5 4 3 3 3 3
7 6 7 6 5 5 5 5 4 4 4 5 5 5 4 5 4 4 4 2 2 3 3 4 4 4 4 4 6 6 6 5 3 3 4 3 3 3 2 3 3 3 2
6 6 6 6 6 6 6 5 4 4 4 4 4 4 5 6 6 5 4 3 3 3 3 3 4 4 3 4 3 3 4 5 4 3 3 1 1 1 2 2 2 1 2
5 6 6 6 6 5 5 4 4 4 4 4 4 4 5 6 6 6 5 4 5 3 3 3 4 3 3 2 3 2 2 2 2 2 1 1 1 1 1 1 1 2 2
6 6 6 6 6 5 4 4 4 3 3 3 3 3 4 5 5 5 6 11 8 9 9 7 5 4 5 5 6 6 5 5 3 2 2 1 1 2 2 2 1 1 2
Wind_Direction
167 164 166 161 156 155 157 162 162 153 160 173 189 185 181 177 171 169 156 153 163 160 186 171 182 276 27 234 231 274 271 258 241 265 277 252 220 199 187 201 195 183 184
167 167 169 168 163 160 163 166 169 169 182 183 191 194 182 182 173 162 152 167 182 184 190 192 201 195 208 238 265 273 289 287 262 274 309 304 303 261 199 184 184 182 175
171 171 175 176 174 172 173 175 172 171 191 189 189 196 181 199 185 171 170 186 194 195 194 186 210 210 220 218 234 240 261 285 292 257 207 243 267 303 270 193 179 168 178
172 173 178 180 181 177 171 164 162 168 181 194 199 201 199 201 197 182 173 184 198 199 196 199 209 234 232 214 238 214 249 269 284 280 222 222 196 231 312 313 188 185 181
172 173 177 178 181 175 172 169 167 174 178 194 201 212 215 206 196 178 174 190 195 205 204 194 197 222 234 238 253 248 266 280 286 297 285 255 240 226 211 262 284 297 183
174 172 174 170 177 178 176 173 169 175 181 194 202 208 215 211 208 196 183 193 194 205 206 203 193 205 224 232 233 245 252 272 310 312 311 301 272 257 237 239 245 257 286
172 169 168 168 174 178 176 170 167 175 184 193 202 206 210 209 211 215 206 210 206 202 199 202 188 202 208 221 225 233 250 265 280 285 288 295 289 288 270 248 258 250 252
172 169 170 169 176 179 175 170 168 176 184 193 199 203 201 211 214 216 223 213 214 207 177 181 185 195 206 220 207 226 221 227 254 275 282 291 289 292 290 258 252 270 266
171 170 172 172 176 178 176 176 169 175 183 191 190 198 203 214 217 206 212 228 223 189 164 169 176 190 200 220 212 223 250 250 247 269 281 286 297 291 291 272 241 229 254
171 166 169 167 170 171 169 171 170 173 179 187 193 195 196 202 210 220 204 209 225 196 145 159 172 186 189 195 210 218 239 236 248 273 330 332 327 316 307 302 298 248 225
161 156 154 154 157 160 160 159 162 166 176 185 188 194 185 189 194 205 206 202 204 191 173 175 184 189 190 203 211 224 254 234 247 297 356 329 319 329 337 334 355 353 46
128 135 138 134 142 148 151 154 160 164 173 178 178 188 183 183 192 199 200 192 191 201 193 192 194 203 196 207 213 224 247 245 346 344 2 342 337 351 345 349 11 9 17
93 103 111 117 126 132 135 147 153 162 171 172 174 178 185 179 183 193 190 191 187 191 196 191 197 193 186 188 183 190 58 29 30 20 37 19 0 1 358 346 344 337 359
102 100 96 100 106 110 118 132 137 145 151 154 163 162 171 174 183 183 177 183 186 192 193 177 184 175 158 132 122 129 102 64 51 42 42 37 19 1 338 338 349 358 6
104 103 101 100 106 113 115 116 119 123 135 141 147 146 156 165 165 163 165 167 178 179 162 159 160 159 139 93 99 150 125 99 78 56 58 63 56 46 32 23 24 18 16
104 105 108 107 106 107 110 110 112 112 110 119 126 122 139 142 142 143 137 135 139 119 115 125 115 103 99 52 62 93 106 106 106 87 72 85 73 65 63 60 52 40 41
105 98 101 106 108 106 106 108 103 103 106 104 108 121 128 130 136 144 132 128 120 112 101 95 94 81 60 48 51 69 98 98 91 83 75 71 73 75 67 77 75 53 44
108 102 98 97 99 101 99 98 101 101 103 95 90 95 112 120 124 121 117 119 116 110 103 88 88 86 66 55 53 47 93 90 78 64 56 62 53 33 24 50 73 64 39
101 106 110 105 92 86 90 93 91 92 88 88 78 79 92 100 105 109 109 104 106 102 103 101 97 92 68 55 59 47 99 91 79 68 57 56 56 29 25 45 71 75 59
95 99 100 97 92 86 83 88 88 89 87 86 87 83 81 91 102 102 107 108 107 106 101 95 90 89 77 64 59 48 96 95 86 76 68 57 51 36 31 40 47 54 26
96 92 86 86 85 87 88 88 86 84 79 75 76 76 74 80 89 92 90 102 102 103 100 96 87 80 75 72 61 53 79 93 90 82 72 59 48 41 30 37 43 21 338
92 87 85 83 79 83 87 86 74 75 74 75 75 71 69 68 76 83 77 83 108 114 110 106 95 83 75 69 72 70 71 74 86 85 81 72 54 42 29 37 24 4 355
97 92 90 84 78 76 80 82 70 71 74 74 75 73 71 70 67 75 81 84 107 121 117 108 103 95 87 80 82 84 80 77 81 79 87 85 59 34 32 38 17 2 1
102 99 95 89 81 73 73 77 72 75 82 84 81 82 84 77 67 60 62 62 58 76 93 97 96 92 78 67 64 70 81 82 86 85 82 77 1 352 11 20 18 14 10
99 96 94 90 86 81 76 72 75 78 85 88 90 90 87 85 76 70 53 61 60 58 81 84 86 89 85 61 70 83 67 56 64 76 78 47 50 55 49 37 26 24 19
100 97 95 92 86 82 76 71 78 85 102 105 101 102 104 103 101 100 81 56 62 67 68 74 91 91 92 94 77 68 67 59 64 76 72 60 50 39 32 22 19 16 6